CXA8720 VMMC-ZSHC

Flight info

Callsign CXA8720
Flight time 1h 50m
Altitude 37000
Route NUDPI V601 DOTMI A470 UGAGO
Aircraft B738/M-SDE2E3FGHIRWXY/LB1

Departure

Time 2026-04-27 07:30
Airport Macau International Airport (VMMC)

Arrival

Time 2026-04-27 09:21
Airport Hangzhou Xiaoshan International Airport (ZSHC)
Time Latitude Longitude Altitude Speed Heading
2026-04-27 07:02 22.15859 113.57614 25 ft 0 kts 286°
2026-04-27 07:16 22.15855 113.57629 35 ft 4 kts 283°
2026-04-27 07:16 22.15851 113.57657 28 ft 4 kts 272°
2026-04-27 07:16 22.15853 113.57685 28 ft 3 kts 246°
2026-04-27 07:16 22.15866 113.57702 28 ft 1 kts 194°
2026-04-27 07:17 22.15867 113.57702 28 ft 0 kts 194°
2026-04-27 07:20 22.15866 113.57702 28 ft 1 kts 194°
2026-04-27 07:20 22.15849 113.57697 28 ft 4 kts 194°
2026-04-27 07:21 22.15809 113.57686 28 ft 8 kts 195°
2026-04-27 07:21 22.15748 113.57663 28 ft 11 kts 204°
2026-04-27 07:21 22.15682 113.57623 28 ft 5 kts 216°
2026-04-27 07:21 22.15654 113.57602 28 ft 5 kts 210°
2026-04-27 07:22 22.15616 113.57604 28 ft 6 kts 143°
2026-04-27 07:22 22.15586 113.57647 28 ft 8 kts 123°
2026-04-27 07:22 22.15551 113.57705 28 ft 11 kts 123°
2026-04-27 07:22 22.15503 113.57782 28 ft 14 kts 123°
2026-04-27 07:23 22.15444 113.57879 28 ft 17 kts 123°
2026-04-27 07:23 22.15373 113.57993 28 ft 19 kts 124°
2026-04-27 07:23 22.15297 113.58115 28 ft 20 kts 123°
2026-04-27 07:23 22.15223 113.58236 28 ft 19 kts 123°
2026-04-27 07:24 22.15150 113.58352 28 ft 18 kts 124°
2026-04-27 07:24 22.15081 113.58464 28 ft 18 kts 123°
2026-04-27 07:24 22.15015 113.58572 28 ft 17 kts 123°
2026-04-27 07:24 22.14949 113.58678 28 ft 17 kts 123°
2026-04-27 07:25 22.14879 113.58791 28 ft 19 kts 123°
2026-04-27 07:25 22.14808 113.58905 28 ft 18 kts 123°
2026-04-27 07:25 22.14739 113.59015 28 ft 17 kts 130°
2026-04-27 07:25 22.14633 113.59070 27 ft 17 kts 160°
2026-04-27 07:26 22.14524 113.59111 27 ft 16 kts 161°
2026-04-27 07:26 22.14420 113.59150 27 ft 16 kts 161°
2026-04-27 07:26 22.14320 113.59187 27 ft 15 kts 161°
2026-04-27 07:26 22.14223 113.59222 27 ft 14 kts 161°
2026-04-27 07:27 22.14132 113.59257 28 ft 14 kts 160°
2026-04-27 07:27 22.14044 113.59289 28 ft 13 kts 161°
2026-04-27 07:27 22.13957 113.59320 27 ft 14 kts 161°
2026-04-27 07:27 22.13859 113.59356 28 ft 16 kts 161°
2026-04-27 07:28 22.13747 113.59397 28 ft 18 kts 161°
2026-04-27 07:28 22.13639 113.59437 27 ft 12 kts 161°
2026-04-27 07:28 22.13573 113.59465 27 ft 10 kts 148°
2026-04-27 07:28 22.13529 113.59521 27 ft 10 kts 126°
2026-04-27 07:29 22.13495 113.59584 27 ft 10 kts 110°
2026-04-27 07:29 22.13514 113.59647 27 ft 9 kts 40°
2026-04-27 07:29 22.13564 113.59650 27 ft 0 kts 342°
2026-04-27 07:29 22.13565 113.59650 27 ft 1 kts 342°
2026-04-27 07:30 22.13650 113.59619 27 ft 45 kts 341°
2026-04-27 07:30 22.14219 113.59411 28 ft 126 kts 341°
2026-04-27 07:30 22.15262 113.59016 158 ft 181 kts 343°
2026-04-27 07:30 22.16459 113.58550 1072 ft 184 kts 345°
2026-04-27 07:31 22.17781 113.58341 1789 ft 199 kts 10°
2026-04-27 07:31 22.19024 113.58936 2431 ft 207 kts 38°
2026-04-27 07:31 22.20270 113.59827 2939 ft 221 kts 34°
2026-04-27 07:31 22.21613 113.60685 3573 ft 223 kts 31°
2026-04-27 07:32 22.22950 113.61470 4251 ft 223 kts 30°
2026-04-27 07:32 22.24360 113.62262 4758 ft 232 kts 28°
2026-04-27 07:32 22.25816 113.63058 5297 ft 238 kts 27°
2026-04-27 07:32 22.27315 113.63867 5881 ft 246 kts 27°
2026-04-27 07:33 22.28845 113.64794 6385 ft 261 kts 36°
2026-04-27 07:33 22.30347 113.66074 6651 ft 286 kts 40°
2026-04-27 07:33 22.31917 113.67479 7297 ft 295 kts 40°
2026-04-27 07:33 22.33465 113.68916 8055 ft 299 kts 49°
2026-04-27 07:34 22.34508 113.70848 8812 ft 301 kts 74°
2026-04-27 07:34 22.34990 113.73053 9584 ft 304 kts 81°
2026-04-27 07:34 22.35397 113.75314 10315 ft 308 kts 80°
2026-04-27 07:34 22.35816 113.77593 11069 ft 311 kts 80°
2026-04-27 07:35 22.36251 113.79899 11762 ft 317 kts 80°
2026-04-27 07:35 22.36713 113.82310 11999 ft 340 kts 80°
2026-04-27 07:35 22.37123 113.84900 12157 ft 360 kts 90°
2026-04-27 07:35 22.36693 113.87605 12311 ft 374 kts 115°
2026-04-27 07:36 22.35221 113.89933 12659 ft 379 kts 139°
2026-04-27 07:36 22.33066 113.91550 13253 ft 378 kts 153°
2026-04-27 07:36 22.30758 113.92937 13880 ft 381 kts 154°
2026-04-27 07:36 22.28425 113.94337 14396 ft 385 kts 153°
2026-04-27 07:37 22.26085 113.95776 14876 ft 390 kts 153°
2026-04-27 07:37 22.23722 113.97259 15373 ft 394 kts 150°
2026-04-27 07:37 22.21591 113.99164 15910 ft 402 kts 135°
2026-04-27 07:37 22.19818 114.01523 16441 ft 408 kts 128°
2026-04-27 07:38 22.18297 114.04130 16907 ft 415 kts 118°
2026-04-27 07:38 22.17177 114.06981 17369 ft 420 kts 112°
2026-04-27 07:38 22.16163 114.09958 17858 ft 424 kts 111°
2026-04-27 07:38 22.15175 114.12975 18316 ft 428 kts 111°
2026-04-27 07:39 22.14179 114.16026 18719 ft 431 kts 111°
2026-04-27 07:39 22.13170 114.19084 19145 ft 434 kts 112°
2026-04-27 07:39 22.12140 114.22158 19562 ft 437 kts 112°
2026-04-27 07:39 22.11095 114.25246 19964 ft 440 kts 112°
2026-04-27 07:40 22.10034 114.28360 20360 ft 443 kts 112°
2026-04-27 07:40 22.08977 114.31449 20749 ft 446 kts 112°
2026-04-27 07:40 22.07893 114.34611 21138 ft 449 kts 112°
2026-04-27 07:40 22.06807 114.37776 21520 ft 452 kts 112°
2026-04-27 07:41 22.05710 114.40969 21869 ft 455 kts 112°
2026-04-27 07:41 22.04606 114.44183 22192 ft 459 kts 112°
2026-04-27 07:41 22.03493 114.47422 22558 ft 462 kts 112°
2026-04-27 07:41 22.02371 114.50687 22922 ft 464 kts 113°
2026-04-27 07:42 22.01261 114.53915 23258 ft 467 kts 113°
2026-04-27 07:42 22.00128 114.57206 23570 ft 470 kts 113°
2026-04-27 07:42 21.98988 114.60515 23842 ft 473 kts 113°
2026-04-27 07:42 21.97836 114.63857 24124 ft 475 kts 113°
2026-04-27 07:43 21.96684 114.67196 24411 ft 477 kts 113°
2026-04-27 07:43 21.95524 114.70557 24692 ft 479 kts 113°
2026-04-27 07:43 21.94359 114.73930 24958 ft 481 kts 113°
2026-04-27 07:43 21.93201 114.77278 25218 ft 483 kts 113°
2026-04-27 07:44 21.92023 114.80685 25473 ft 486 kts 112°
2026-04-27 07:44 21.90833 114.84121 25722 ft 488 kts 112°
2026-04-27 07:44 21.89652 114.87554 25971 ft 490 kts 111°
2026-04-27 07:44 21.88771 114.91114 26203 ft 495 kts 102°
2026-04-27 07:45 21.88370 114.94810 26447 ft 499 kts 92°
2026-04-27 07:45 21.88443 114.98554 26703 ft 501 kts 88°
2026-04-27 07:45 21.88614 115.02312 26928 ft 503 kts 88°
2026-04-27 07:45 21.88789 115.06049 27113 ft 506 kts 88°
2026-04-27 07:46 21.88948 115.09856 27321 ft 508 kts 88°
2026-04-27 07:46 21.89083 115.13678 27560 ft 510 kts 88°
2026-04-27 07:46 21.89201 115.17446 27789 ft 511 kts 89°
2026-04-27 07:46 21.89315 115.21279 27999 ft 513 kts 89°
2026-04-27 07:47 21.89430 115.25124 28201 ft 515 kts 89°
2026-04-27 07:47 21.89546 115.28985 28407 ft 516 kts 89°
2026-04-27 07:47 21.89660 115.32855 28608 ft 518 kts 89°
2026-04-27 07:47 21.89773 115.36739 28810 ft 519 kts 89°
2026-04-27 07:48 21.89885 115.40626 29067 ft 520 kts 89°
2026-04-27 07:48 21.89997 115.44536 29380 ft 519 kts 89°
2026-04-27 07:48 21.90033 115.45793 29487 ft 518 kts 89°
2026-04-27 07:50 21.90139 115.49527 29802 ft 517 kts 89°
2026-04-27 07:50 21.90248 115.53404 30070 ft 517 kts 89°
2026-04-27 07:50 21.90356 115.57281 30284 ft 518 kts 89°
2026-04-27 07:50 21.90473 115.61171 30524 ft 518 kts 87°
2026-04-27 07:51 21.90875 115.65021 30735 ft 519 kts 78°
2026-04-27 07:51 21.91636 115.68829 30844 ft 522 kts 76°
2026-04-27 07:51 21.92466 115.72645 31067 ft 522 kts 76°
2026-04-27 07:51 21.93293 115.76412 31649 ft 514 kts 76°
2026-04-27 07:52 21.94097 115.80156 31943 ft 513 kts 76°
2026-04-27 07:52 21.94885 115.83921 32044 ft 518 kts 77°
2026-04-27 07:52 21.95654 115.87677 32174 ft 520 kts 77°
2026-04-27 07:52 21.96424 115.91485 32432 ft 520 kts 77°
2026-04-27 07:53 21.97191 115.95285 32732 ft 519 kts 77°
2026-04-27 07:53 21.97958 115.99086 33001 ft 519 kts 77°
2026-04-27 07:53 21.98729 116.02891 33222 ft 520 kts 77°
2026-04-27 07:53 21.99500 116.06701 33444 ft 521 kts 76°
2026-04-27 07:54 22.00628 116.10392 33633 ft 518 kts 59°
2026-04-27 07:54 22.02666 116.13546 33874 ft 510 kts 43°
2026-04-27 07:54 22.05328 116.16000 34133 ft 499 kts 27°
2026-04-27 07:54 22.08378 116.17708 34351 ft 489 kts 15°
2026-04-27 07:55 22.11611 116.18694 34544 ft 478 kts
2026-04-27 07:55 22.14888 116.18881 34783 ft 468 kts 352°
2026-04-27 07:55 22.18136 116.18771 34925 ft 467 kts 351°
2026-04-27 07:56 22.24652 116.18436 34922 ft 467 kts 351°
2026-04-27 07:56 22.31090 116.18157 34929 ft 464 kts 351°
2026-04-27 07:57 22.37521 116.17934 34931 ft 462 kts 352°
2026-04-27 07:57 22.43956 116.17724 34948 ft 461 kts 352°
2026-04-27 07:58 22.50367 116.17513 34942 ft 461 kts 352°
2026-04-27 07:58 22.56793 116.17298 34941 ft 462 kts 352°
2026-04-27 07:59 22.63229 116.17084 34939 ft 463 kts 352°
2026-04-27 07:59 22.69668 116.17178 34926 ft 475 kts
2026-04-27 07:59 22.72886 116.18182 34953 ft 486 kts 17°
2026-04-27 08:00 22.75891 116.19948 34939 ft 497 kts 31°
2026-04-27 08:00 22.78657 116.22236 34957 ft 500 kts 34°
2026-04-27 08:00 22.83180 116.26166 34940 ft 501 kts 34°
2026-04-27 08:01 22.89562 116.31579 34933 ft 500 kts 33°
2026-04-27 08:01 22.94187 116.35423 34940 ft 499 kts 33°
2026-04-27 08:02 22.99703 116.39989 34938 ft 498 kts 32°
2026-04-27 08:02 23.05189 116.44472 34942 ft 497 kts 32°
2026-04-27 08:03 23.10684 116.49021 34945 ft 496 kts 33°
2026-04-27 08:03 23.16157 116.53575 34950 ft 494 kts 33°
2026-04-27 08:04 23.21621 116.58107 34946 ft 494 kts 32°
2026-04-27 08:04 23.27087 116.62639 34950 ft 494 kts 32°
2026-04-27 08:05 23.32561 116.67180 34940 ft 495 kts 32°
2026-04-27 08:05 23.38005 116.71707 34953 ft 495 kts 32°
2026-04-27 08:06 23.43483 116.76279 34941 ft 497 kts 33°
2026-04-27 08:06 23.48508 116.81524 34973 ft 503 kts 43°
2026-04-27 08:07 23.53284 116.87107 34945 ft 504 kts 43°
2026-04-27 08:07 23.58086 116.92658 34947 ft 503 kts 42°
2026-04-27 08:08 23.62933 116.98170 34950 ft 502 kts 42°
2026-04-27 08:08 23.67782 117.03671 34955 ft 502 kts 42°
2026-04-27 08:09 23.72605 117.09159 34979 ft 501 kts 43°
2026-04-27 08:09 23.77461 117.14620 34952 ft 498 kts 40°
2026-04-27 08:10 23.82534 117.19636 34946 ft 494 kts 37°
2026-04-27 08:10 23.87699 117.24570 34941 ft 490 kts 37°
2026-04-27 08:11 23.92793 117.29499 34953 ft 489 kts 38°
2026-04-27 08:11 23.97861 117.34454 34965 ft 488 kts 38°
2026-04-27 08:12 24.02933 117.39429 35004 ft 490 kts 38°
2026-04-27 08:12 24.07974 117.44390 35048 ft 490 kts 39°
2026-04-27 08:13 24.13059 117.49384 35045 ft 490 kts 38°
2026-04-27 08:13 24.17897 117.54704 35048 ft 494 kts 45°
2026-04-27 08:14 24.22111 117.59895 35052 ft 495 kts 45°
2026-04-27 08:14 24.25330 117.63869 35045 ft 495 kts 45°
2026-04-27 08:15 24.29950 117.69480 35046 ft 495 kts 44°
2026-04-27 08:15 24.34592 117.75064 35043 ft 495 kts 44°
2026-04-27 08:16 24.39223 117.80629 35054 ft 493 kts 44°
2026-04-27 08:16 24.43844 117.86200 35053 ft 493 kts 44°
2026-04-27 08:17 24.48460 117.91774 35042 ft 493 kts 44°
2026-04-27 08:17 24.53045 117.97317 35040 ft 493 kts 44°
2026-04-27 08:18 24.57671 118.02899 35048 ft 493 kts 44°
2026-04-27 08:18 24.62435 118.08320 35034 ft 492 kts 42°
2026-04-27 08:19 24.67193 118.13685 35054 ft 492 kts 42°
2026-04-27 08:19 24.71947 118.19115 35052 ft 493 kts 42°
2026-04-27 08:20 24.76721 118.24550 35050 ft 493 kts 42°
2026-04-27 08:20 24.81503 118.29992 35051 ft 494 kts 42°
2026-04-27 08:21 24.86281 118.35440 35043 ft 495 kts 42°
2026-04-27 08:21 24.91038 118.40875 35047 ft 495 kts 42°
2026-04-27 08:22 24.95819 118.46343 35057 ft 496 kts 42°
2026-04-27 08:22 25.00606 118.51824 35052 ft 496 kts 42°
2026-04-27 08:23 25.05395 118.57316 35050 ft 496 kts 42°
2026-04-27 08:23 25.10184 118.62820 35075 ft 496 kts 43°
2026-04-27 08:24 25.14868 118.68419 35068 ft 495 kts 44°
2026-04-27 08:24 25.19467 118.74001 35054 ft 494 kts 44°
2026-04-27 08:25 25.24093 118.79597 35062 ft 493 kts 44°
2026-04-27 08:25 25.28743 118.85206 35057 ft 493 kts 44°
2026-04-27 08:26 25.33387 118.90807 35062 ft 493 kts 44°
2026-04-27 08:26 25.38058 118.96361 35061 ft 493 kts 43°
2026-04-27 08:27 25.42791 119.01862 35055 ft 493 kts 43°
2026-04-27 08:27 25.47490 119.07336 35063 ft 494 kts 43°
2026-04-27 08:28 25.52226 119.12882 35065 ft 494 kts 43°
2026-04-27 08:28 25.56916 119.18388 35066 ft 494 kts 44°
2026-04-27 08:29 25.61638 119.23938 35060 ft 495 kts 44°
2026-04-27 08:29 25.66362 119.29496 35054 ft 495 kts 44°
2026-04-27 08:30 25.71120 119.35023 35056 ft 494 kts 39°
2026-04-27 08:30 25.76746 119.39253 35071 ft 486 kts 22°
2026-04-27 08:31 25.83075 119.41716 35054 ft 481 kts 12°
2026-04-27 08:31 25.89509 119.43794 35051 ft 482 kts 12°
2026-04-27 08:32 25.95942 119.45930 35044 ft 483 kts 13°
2026-04-27 08:32 26.02374 119.48112 35079 ft 483 kts 13°
2026-04-27 08:33 26.08765 119.50293 35082 ft 483 kts 13°
2026-04-27 08:33 26.15197 119.52479 35058 ft 482 kts 13°
2026-04-27 08:34 26.21639 119.54536 35048 ft 479 kts
2026-04-27 08:34 26.28231 119.54997 35070 ft 474 kts 355°
2026-04-27 08:35 26.34845 119.54950 35072 ft 476 kts 356°
2026-04-27 08:35 26.41488 119.55019 35076 ft 478 kts 356°
2026-04-27 08:36 26.48148 119.55080 35061 ft 479 kts 356°
2026-04-27 08:36 26.54788 119.55115 35074 ft 480 kts 356°
2026-04-27 08:37 26.61474 119.55154 35074 ft 480 kts 356°
2026-04-27 08:37 26.68158 119.55200 35070 ft 480 kts 356°
2026-04-27 08:38 26.74833 119.55247 35059 ft 479 kts 356°
2026-04-27 08:38 26.81501 119.55293 35079 ft 478 kts 356°
2026-04-27 08:39 26.88168 119.55338 35066 ft 478 kts 356°
2026-04-27 08:39 26.94820 119.55385 35062 ft 478 kts 356°
2026-04-27 08:40 27.01440 119.55428 35067 ft 478 kts 356°
2026-04-27 08:40 27.08093 119.55476 35066 ft 478 kts 356°
2026-04-27 08:41 27.14739 119.55522 35062 ft 477 kts 356°
2026-04-27 08:41 27.21382 119.55568 35067 ft 477 kts 356°
2026-04-27 08:42 27.27982 119.55610 35051 ft 477 kts 356°
2026-04-27 08:42 27.34619 119.55605 35066 ft 476 kts 356°
2026-04-27 08:43 27.41255 119.55599 35064 ft 476 kts 356°
2026-04-27 08:43 27.47889 119.55615 35057 ft 476 kts 356°
2026-04-27 08:44 27.53487 119.55653 35056 ft 477 kts 356°
2026-04-27 08:44 27.60121 119.55700 35061 ft 477 kts 356°
2026-04-27 08:45 27.66755 119.55742 35058 ft 476 kts 356°
2026-04-27 08:45 27.73404 119.55784 35056 ft 477 kts 356°
2026-04-27 08:46 27.80017 119.55828 35051 ft 476 kts 356°
2026-04-27 08:46 27.86659 119.55865 35049 ft 478 kts 356°
2026-04-27 08:47 27.92188 119.55899 35038 ft 477 kts 356°
2026-04-27 08:47 27.98843 119.56003 35033 ft 477 kts 357°
2026-04-27 08:48 28.05482 119.56123 35026 ft 477 kts 356°
2026-04-27 08:48 28.11823 119.56243 35036 ft 475 kts 357°
2026-04-27 08:49 28.18537 119.56589 35018 ft 475 kts 358°
2026-04-27 08:49 28.25085 119.56982 35024 ft 473 kts 358°
2026-04-27 08:50 28.31661 119.57347 35016 ft 472 kts 358°
2026-04-27 08:50 28.38219 119.57695 35020 ft 471 kts 358°
2026-04-27 08:51 28.44767 119.58044 35023 ft 470 kts 358°
2026-04-27 08:51 28.51305 119.58423 35008 ft 470 kts 358°
2026-04-27 08:52 28.57839 119.58836 35014 ft 469 kts 358°
2026-04-27 08:52 28.64354 119.59246 35017 ft 468 kts 358°
2026-04-27 08:53 28.70833 119.59649 35004 ft 468 kts 358°
2026-04-27 08:53 28.77330 119.60052 35006 ft 467 kts 358°
2026-04-27 08:54 28.83823 119.60455 35006 ft 466 kts 358°
2026-04-27 08:54 28.90276 119.60857 35002 ft 466 kts 358°
2026-04-27 08:55 28.93542 119.61058 34498 ft 473 kts 358°
2026-04-27 08:55 28.96823 119.61262 33877 ft 472 kts 358°
2026-04-27 08:55 29.00116 119.61469 33109 ft 472 kts 358°
2026-04-27 08:55 29.03395 119.61674 32357 ft 472 kts 358°
2026-04-27 08:56 29.06648 119.61878 31609 ft 472 kts 358°
2026-04-27 08:56 29.09927 119.62083 30868 ft 473 kts 358°
2026-04-27 08:56 29.13215 119.62288 30127 ft 473 kts 358°
2026-04-27 08:56 29.16505 119.62493 29185 ft 474 kts 358°
2026-04-27 08:57 29.23112 119.62904 27499 ft 472 kts 358°
2026-04-27 08:57 29.26374 119.63109 26846 ft 466 kts 358°
2026-04-27 08:57 29.29600 119.63315 26229 ft 462 kts 358°
2026-04-27 08:58 29.32796 119.63517 25575 ft 458 kts 358°
2026-04-27 08:58 29.35966 119.63715 24948 ft 454 kts 358°
2026-04-27 08:58 29.39115 119.63911 24300 ft 452 kts 358°
2026-04-27 08:58 29.42249 119.64106 23661 ft 449 kts 358°
2026-04-27 08:59 29.45329 119.64298 22967 ft 447 kts 358°
2026-04-27 08:59 29.48426 119.64480 22264 ft 444 kts 358°
2026-04-27 08:59 29.51494 119.64681 21636 ft 440 kts 358°
2026-04-27 08:59 29.54542 119.64880 21010 ft 436 kts 358°
2026-04-27 09:00 29.57560 119.65027 20351 ft 432 kts 356°
2026-04-27 09:00 29.60565 119.65302 19692 ft 437 kts
2026-04-27 09:00 29.63406 119.66656 19048 ft 449 kts 28°
2026-04-27 09:00 29.65774 119.69033 18378 ft 456 kts 47°
2026-04-27 09:01 29.67737 119.71824 17683 ft 454 kts 49°
2026-04-27 09:01 29.69709 119.74710 17011 ft 451 kts 50°
2026-04-27 09:01 29.71612 119.77507 16392 ft 448 kts 50°
2026-04-27 09:01 29.73539 119.80301 15729 ft 444 kts 48°
2026-04-27 09:02 29.75467 119.83064 15122 ft 440 kts 49°
2026-04-27 09:02 29.77382 119.85798 14509 ft 436 kts 49°
2026-04-27 09:02 29.79294 119.88490 13903 ft 431 kts 48°
2026-04-27 09:02 29.81171 119.91159 13266 ft 426 kts 50°
2026-04-27 09:03 29.83020 119.93797 12624 ft 418 kts 48°
2026-04-27 09:03 29.84862 119.96347 12082 ft 411 kts 52°
2026-04-27 09:03 29.86312 119.99141 11752 ft 400 kts 63°
2026-04-27 09:03 29.87538 120.01944 11219 ft 395 kts 62°
2026-04-27 09:04 29.88815 120.04706 10927 ft 383 kts 61°
2026-04-27 09:04 29.90068 120.07349 10764 ft 369 kts 61°
2026-04-27 09:04 29.91282 120.09897 10619 ft 355 kts 61°
2026-04-27 09:04 29.92450 120.12358 10470 ft 343 kts 60°
2026-04-27 09:05 29.93574 120.14731 10343 ft 332 kts 60°
2026-04-27 09:05 29.94665 120.17032 10221 ft 321 kts 60°
2026-04-27 09:05 29.95721 120.19262 10105 ft 312 kts 61°
2026-04-27 09:05 29.96739 120.21415 10048 ft 300 kts 61°
2026-04-27 09:06 29.97728 120.23508 9857 ft 295 kts 61°
2026-04-27 09:06 29.98706 120.25579 9566 ft 293 kts 61°
2026-04-27 09:06 29.99678 120.27639 9264 ft 291 kts 61°
2026-04-27 09:06 30.00599 120.29666 9027 ft 288 kts 62°
2026-04-27 09:07 30.01512 120.31715 8735 ft 286 kts 62°
2026-04-27 09:07 30.02421 120.33762 8446 ft 285 kts 62°
2026-04-27 09:07 30.03320 120.35788 8155 ft 283 kts 62°
2026-04-27 09:07 30.04218 120.37809 7870 ft 282 kts 62°
2026-04-27 09:08 30.05111 120.39817 7581 ft 281 kts 62°
2026-04-27 09:08 30.06002 120.41820 7301 ft 280 kts 62°
2026-04-27 09:08 30.06891 120.43820 7016 ft 279 kts 62°
2026-04-27 09:08 30.07778 120.45813 6736 ft 279 kts 62°
2026-04-27 09:09 30.08662 120.47804 6471 ft 277 kts 62°
2026-04-27 09:09 30.09533 120.49764 6335 ft 271 kts 62°
2026-04-27 09:09 30.10373 120.51654 6198 ft 264 kts 62°
2026-04-27 09:09 30.11201 120.53518 6076 ft 257 kts 62°
2026-04-27 09:10 30.12002 120.55324 5961 ft 250 kts 62°
2026-04-27 09:10 30.12785 120.57090 5787 ft 245 kts 62°
2026-04-27 09:10 30.13562 120.58846 5528 ft 244 kts 62°
2026-04-27 09:10 30.14332 120.60585 5294 ft 243 kts 63°
2026-04-27 09:11 30.15097 120.62319 5074 ft 240 kts 63°
2026-04-27 09:11 30.15846 120.64016 4841 ft 234 kts 63°
2026-04-27 09:11 30.16579 120.65678 4588 ft 229 kts 63°
2026-04-27 09:11 30.17295 120.67300 4344 ft 223 kts 63°
2026-04-27 09:12 30.17992 120.68880 4108 ft 218 kts 63°
2026-04-27 09:12 30.18671 120.70421 3896 ft 212 kts 63°
2026-04-27 09:12 30.19335 120.71927 3691 ft 209 kts 63°
2026-04-27 09:12 30.19981 120.73393 3483 ft 206 kts 63°
2026-04-27 09:13 30.20626 120.74857 3286 ft 203 kts 63°
2026-04-27 09:13 30.21436 120.76166 3057 ft 201 kts 34°
2026-04-27 09:13 30.22739 120.76586 2877 ft 198 kts 353°
2026-04-27 09:13 30.24059 120.76109 2704 ft 202 kts 333°
2026-04-27 09:14 30.25310 120.75373 2497 ft 200 kts 333°
2026-04-27 09:14 30.26540 120.74652 2265 ft 195 kts 333°
2026-04-27 09:14 30.27736 120.73951 2062 ft 193 kts 333°
2026-04-27 09:14 30.28941 120.73243 2011 ft 194 kts 333°
2026-04-27 09:15 30.30144 120.72537 1976 ft 193 kts 333°
2026-04-27 09:15 30.31324 120.71846 1977 ft 192 kts 332°
2026-04-27 09:15 30.32515 120.71146 1970 ft 191 kts 330°
2026-04-27 09:15 30.33442 120.70089 1958 ft 189 kts 290°
2026-04-27 09:16 30.33440 120.68613 1983 ft 182 kts 254°
2026-04-27 09:16 30.33068 120.67229 1968 ft 178 kts 251°
2026-04-27 09:16 30.32663 120.65889 1962 ft 176 kts 250°
2026-04-27 09:16 30.32211 120.64563 1980 ft 179 kts 246°
2026-04-27 09:17 30.31688 120.63260 1978 ft 182 kts 244°
2026-04-27 09:17 30.31121 120.61945 1980 ft 183 kts 243°
2026-04-27 09:17 30.30547 120.60638 1962 ft 179 kts 243°
2026-04-27 09:17 30.29986 120.59371 1957 ft 175 kts 243°
2026-04-27 09:18 30.29432 120.58118 1968 ft 176 kts 243°
2026-04-27 09:18 30.28872 120.56854 1972 ft 177 kts 243°
2026-04-27 09:18 30.28309 120.55581 1912 ft 179 kts 243°
2026-04-27 09:18 30.27737 120.54287 1703 ft 180 kts 243°
2026-04-27 09:19 30.27171 120.53005 1462 ft 178 kts 243°
2026-04-27 09:19 30.26622 120.51765 1250 ft 167 kts 243°
2026-04-27 09:19 30.26108 120.50601 1037 ft 162 kts 243°
2026-04-27 09:19 30.25599 120.49449 850 ft 160 kts 243°
2026-04-27 09:20 30.25101 120.48320 671 ft 157 kts 243°
2026-04-27 09:20 30.24598 120.47182 469 ft 159 kts 243°
2026-04-27 09:20 30.24103 120.46055 253 ft 160 kts 244°
2026-04-27 09:20 30.23600 120.44917 49 ft 158 kts 243°
2026-04-27 09:21 30.23151 120.43893 31 ft 117 kts 243°
2026-04-27 09:21 30.22878 120.43274 33 ft 56 kts 242°
2026-04-27 09:21 30.22770 120.43030 30 ft 27 kts 243°
2026-04-27 09:21 30.22717 120.42873 31 ft 20 kts 256°
2026-04-27 09:22 30.22708 120.42766 32 ft 11 kts 269°
2026-04-27 09:22 30.22709 120.42681 31 ft 10 kts 271°
2026-04-27 09:22 30.22722 120.42624 29 ft 7 kts 305°
2026-04-27 09:22 30.22765 120.42607 31 ft 7 kts 19°
2026-04-27 09:23 30.22798 120.42658 31 ft 9 kts 63°
2026-04-27 09:23 30.22830 120.42730 31 ft 11 kts 63°
2026-04-27 09:23 30.22872 120.42825 31 ft 15 kts 63°
2026-04-27 09:23 30.22927 120.42950 31 ft 19 kts 63°
2026-04-27 09:24 30.22992 120.43095 31 ft 21 kts 63°
2026-04-27 09:24 30.23060 120.43248 31 ft 21 kts 63°
2026-04-27 09:24 30.23125 120.43396 31 ft 21 kts 63°
2026-04-27 09:24 30.23190 120.43542 31 ft 20 kts 63°
2026-04-27 09:25 30.23252 120.43683 31 ft 19 kts 63°
2026-04-27 09:25 30.23312 120.43819 31 ft 19 kts 63°
2026-04-27 09:25 30.23367 120.43945 31 ft 16 kts 63°
2026-04-27 09:25 30.23415 120.44054 31 ft 11 kts 63°
2026-04-27 09:26 30.23474 120.44079 30 ft 10 kts 331°
2026-04-27 09:26 30.23541 120.44034 31 ft 12 kts 330°
2026-04-27 09:26 30.23624 120.43983 31 ft 15 kts 333°
2026-04-27 09:26 30.23726 120.43923 31 ft 18 kts 333°
2026-04-27 09:27 30.23845 120.43854 29 ft 20 kts 333°
2026-04-27 09:27 30.23972 120.43780 31 ft 21 kts 333°
2026-04-27 09:27 30.24099 120.43707 31 ft 20 kts 334°
2026-04-27 09:27 30.24222 120.43638 31 ft 19 kts 334°
2026-04-27 09:28 30.24340 120.43569 30 ft 19 kts 329°
2026-04-27 09:28 30.24452 120.43498 30 ft 18 kts 333°
2026-04-27 09:28 30.24543 120.43445 31 ft 11 kts 333°
2026-04-27 09:28 30.24566 120.43378 31 ft 10 kts 243°
2026-04-27 09:29 30.24532 120.43302 31 ft 12 kts 243°
2026-04-27 09:29 30.24490 120.43205 31 ft 15 kts 243°
2026-04-27 09:29 30.24436 120.43082 31 ft 19 kts 243°
2026-04-27 09:29 30.24374 120.42942 31 ft 15 kts 243°
2026-04-27 09:30 30.24335 120.42855 31 ft 10 kts 237°
2026-04-27 09:30 30.24286 120.42794 31 ft 11 kts 187°
2026-04-27 09:30 30.24217 120.42826 31 ft 11 kts 153°
2026-04-27 09:30 30.24169 120.42853 31 ft 6 kts 163°
2026-04-27 09:31 30.24136 120.42827 31 ft 5 kts 233°
2026-04-27 09:31 30.24126 120.42811 31 ft 3 kts 234°
2026-04-27 09:31 30.24121 120.42803 31 ft 1 kts 234°